[[{"header":{"parameterUnit":"m.s-1","parameterCategory":1,"la1":30.2991,"la2":30.254,"lo1":-89.0895,"lo2":-89.0444,"dy":0.0017,"dx":0.0017,"nx":28,"ny":28,"refTime":"2025-01-08T09:00:00:Z","depth":0,"parameterNumber":2,"parameterNumberName":"U-component_of_WINDS"},"data":[0,0,0,0,0,0,0,0,0,0,0,0,0,0,0,0,0,0,0,0,0,0,0,0,0,0,0,0,0,0,0,0,0,0,0,0,0,0,0,0,0,0,0,0,0,0,0,0,0,0,0,0,0,0,0,0,0,0,-4.2099,-4.2099,0,-4.2128,-4.2129,-4.2129,-4.202,-4.2017,-4.2014,-4.2011,-4.2042,-4.2045,-4.2049,0,0,0,0,0,0,0,0,0,0,0,0,0,-4.195,-4.1953,-4.2099,-4.2099,-4.21,-4.2128,-4.2129,-4.2129,-4.2021,-4.2017,-4.2013,-4.2009,-4.204,-4.2045,-4.205,0,0,0,0,0,0,0,0,0,0,0,0,0,-4.2001,-4.1954,-4.2099,-4.2049,-4.2045,-4.2128,-4.2129,-4.2129,-4.2021,-4.2017,-4.2012,-4.2007,-4.2039,-4.2045,-4.205,-4.2183,0,0,-4.2068,-4.207,0,0,0,0,0,0,0,0,-4.1998,-4.2006,-4.2056,-4.2053,-4.2048,-4.2065,-4.2087,-4.2147,-4.2023,-4.2031,-4.201,-4.2005,-4.2054,-4.2058,-4.2074,-4.2185,-4.2186,-4.2068,-4.2072,-4.2074,-4.2076,0,0,0,0,0,0,0,-4.1995,-4.2004,-4.2111,-4.2057,-4.2052,-4.2025,-4.2027,-4.2098,-4.2069,-4.2029,-4.2022,-4.2026,-4.2051,-4.2069,-4.2074,-4.2186,-4.2068,-4.2073,-4.2077,-4.2079,-4.2407,-4.2412,0,0,0,0,0,0,-4.1998,-4.2002,-4.211,-4.2111,-4.2011,-4.2032,-4.2034,-4.2065,-4.2068,-4.2064,-4.2031,-4.2021,-4.2061,-4.2067,-4.2075,-4.223,-4.2074,-4.208,-4.2083,-4.2402,-4.2408,-4.2414,0,0,0,0,0,0,-4.1995,-4.2008,-4.2108,-4.2055,-4.2065,-4.204,-4.2075,-4.2068,-4.2086,-4.2069,-4.2063,-4.2055,-4.2058,-4.2067,-4.2157,-4.223,-4.2082,-4.2088,-4.2396,-4.2404,-4.2411,-4.2543,0,0,0,0,0,0,-4.1991,-4.2008,-4.2058,-4.2057,-4.2069,-4.2191,-4.208,-4.2072,-4.2096,-4.2084,-4.209,-4.2086,-4.2055,-4.2149,-4.2163,-4.2235,-4.2092,-4.2389,-4.2399,-4.2408,-4.2532,-4.2554,-4.2574,0,0,0,0,0,-4.1986,-4.2094,-4.2061,-4.2075,-4.2131,-4.2195,-4.2202,-4.2163,-4.2103,-4.2153,-4.2142,-4.2086,-4.222,-4.2159,-4.2174,-4.2249,-4.2384,-4.2396,-4.2408,-4.2523,-4.255,-4.2573,0,0,0,0,0,0,-4.2106,-4.2093,-4.2056,-4.2168,-4.2183,-4.2176,-4.2239,-4.2193,-4.2227,-4.2214,-4.2165,-4.2167,-4.2266,-4.2266,-4.2199,-4.2377,-4.2291,-4.2307,-4.2374,-4.24,-4.242,-4.2418,-4.2097,0,0,0,0,0,-4.2145,-4.2198,-4.2184,-4.2284,-4.2293,-4.2265,-4.2291,-4.226,-4.2274,-4.228,-4.2276,-4.2292,-4.2337,-4.2368,-4.2409,-4.2531,-4.2531,-4.259,-4.2611,-4.2628,-4.2642,-4.2706,-4.2733,-4.2452,-4.2452,-4.2452,0,0,-4.2227,-4.2227,-4.2263,-4.2308,-4.2316,-4.2372,-4.2271,-4.2335,-4.2376,-4.229,-4.2375,-4.2372,-4.2387,-4.2494,-4.254,-4.2497,-4.2719,-4.2643,-4.2657,-4.2662,-4.2721,-4.2748,-4.2771,-4.246,-4.2459,-4.2458,0,0,-4.2404,-4.241,-4.2493,-4.2503,-4.2517,-4.2497,-4.2517,-4.2517,-4.2512,-4.2596,-4.2533,-4.2581,-4.2661,-4.2673,-4.2691,-4.2873,-4.2822,-4.2887,-4.2996,-4.3059,-4.3081,-4.3101,-4.3165,-4.3189,-4.2901,-4.2901,-4.2902,0,-4.2505,-4.2586,-4.2542,-4.2609,-4.2631,-4.2555,-4.2639,-4.2651,-4.2678,-4.2695,-4.2645,-4.2743,-4.2747,-4.2856,-4.29,-4.2917,-4.2938,-4.2887,-4.3082,-4.31,-4.3118,-4.3179,-4.3204,-4.2909,-4.2908,-4.2907,-4.2907,0,-4.2708,-4.2766,-4.2831,-4.2859,-4.2887,-4.2963,-4.293,-4.2964,-4.293,-4.2916,-4.3003,-4.3005,-4.3045,-4.3069,-4.3036,-4.3173,-4.3145,-4.309,-4.3002,-4.3153,-4.321,-4.3233,-4.292,-4.2917,-4.2915,-4.2913,0,0,-4.2963,-4.2964,-4.2989,-4.3,-4.3009,-4.3053,-4.3125,-4.3163,-4.3194,-4.3215,-4.3274,-4.3342,-4.3291,-4.331,-4.3278,-4.3334,-4.3478,-4.3271,-4.3271,-4.331,-4.3628,-4.367,-4.3698,-4.3444,-4.3449,-4.3452,-4.3627,0,-4.3137,-4.326,-4.3222,-4.3346,-4.3399,-4.3327,-4.339,-4.3402,-4.3391,-4.3434,-4.342,-4.347,-4.3398,-4.3409,-4.3461,-4.345,-4.3541,-4.3436,-4.3499,-4.3502,-4.3498,-4.3728,-4.3772,-4.3937,-4.3649,-4.3652,-4.3655,0,-4.3358,-4.3386,-4.3516,-4.3516,-4.3536,-4.3593,-4.3625,-4.3667,-4.368,-4.3667,-4.3689,-4.3645,-4.3716,-4.3628,-4.3724,-4.3654,-4.3677,-4.3676,-4.3681,-4.3686,-4.3588,-4.3739,-4.3989,-4.4014,-4.369,-4.3687,-4.3684,0,-4.353,-4.3602,-4.3688,-4.37,-4.3702,-4.3744,-4.3746,-4.3754,-4.378,-4.3808,-4.3823,-4.386,-4.388,-4.3909,-4.3876,-4.3815,-4.3978,-4.3887,-4.3969,-4.397,-4.4007,-4.4005,-4.4265,-4.4022,-4.4022,-4.4021,-4.4021,0,-4.3729,-4.3811,-4.3766,-4.3819,-4.3909,-4.3864,-4.3954,-4.3948,-4.3956,-4.4007,-4.3947,-4.3996,-4.395,-4.3995,-4.397,-4.4054,-4.4063,-4.4055,-4.4048,-4.4061,-4.4062,-4.4076,-4.4064,-4.4028,-4.4027,-4.4025,-4.4024,0,-4.3938,-4.3911,-4.4,-4.3994,-4.3995,-4.4061,-4.4056,-4.4105,-4.4089,-4.4154,-4.4167,-4.4142,-4.4191,-4.4162,-4.4213,-4.4196,-4.4305,-4.4281,-4.4301,-4.4294,-4.4378,-4.4371,-4.4656,-4.4691,-4.4426,-4.4429,-4.4431,0,-4.4067,-4.4128,-4.4129,-4.4159,-4.4165,-4.4214,-4.4239,-4.4198,-4.4227,-4.4245,-4.4292,-4.4336,-4.437,-4.4453,-4.4439,-4.4477,-4.4455,-4.4552,-4.446,-4.4471,-4.4456,-4.4453,-4.4459,-4.4571,-4.4574,-4.4576,-4.4578,0,-4.4299,-4.4282,-4.4321,-4.4356,-4.4388,-4.4413,-4.4433,-4.4461,-4.4419,-4.4454,-4.4504,-4.453,-4.4582,-4.4627,-4.4659,-4.4661,-4.4614,-4.4607,-4.4628,-4.4642,-4.4651,-4.4647,-4.4351,-4.4601,-4.4599,-4.4597,-4.4596,-4.4595,-4.4471,-4.4522,-4.4531,-4.4576,-4.4587,-4.4607,-4.4652,-4.4642,-4.4682,-4.4721,-4.4694,-4.4753,-4.4763,-4.4801,-4.481,-4.4856,-4.4817,-4.4847,-4.4855,-4.4863,-4.4875,-4.4644,-4.4862,-4.4861,-4.486,-4.486,-4.4859,0,-4.47,-4.4702,-4.4744,-4.4774,-4.4809,-4.476,-4.478,-4.4813,-4.4866,-4.4879,-4.4913,-4.497,-4.5013,-4.5003,-4.5042,-4.508,-4.5059,-4.5092,-4.5089,-4.509,-4.4908,-4.4886,-4.5108,-4.5108,-4.5108,-4.5108,-4.5108,-4.5108,-4.4823,-4.4907,-4.4891,-4.4979,-4.498,-4.5037,-4.5053,-4.5071,-4.5082,-4.5148,-4.5184,-4.5176,-4.518,-4.5218,-4.5256,-4.5251,-4.5268,-4.531,-4.5297,-4.5127,-4.5103,-4.5079,-4.5058,-4.5314,-4.5314,-4.5475,-4.5477,-4.5478]},{"header":{"parameterUnit":"m.s-1","parameterCategory":1,"la1":30.2991,"la2":30.254,"lo1":-89.0895,"lo2":-89.0444,"dy":0.0017,"dx":0.0017,"nx":28,"ny":28,"refTime":"2025-01-08T09:00:00:Z","depth":0,"parameterNumber":3,"parameterNumberName":"V-component_of_WINDS"},"data":[0,0,0,0,0,0,0,0,0,0,0,0,0,0,0,0,0,0,0,0,0,0,0,0,0,0,0,0,0,0,0,0,0,0,0,0,0,0,0,0,0,0,0,0,0,0,0,0,0,0,0,0,0,0,0,0,0,0,-3.8354,-3.8354,0,-3.837,-3.837,-3.837,-3.8311,-3.8309,-3.8307,-3.8306,-3.8322,-3.8324,-3.8326,0,0,0,0,0,0,0,0,0,0,0,0,0,-3.827,-3.8272,-3.8354,-3.8354,-3.8354,-3.837,-3.837,-3.837,-3.8311,-3.8309,-3.8307,-3.8305,-3.8321,-3.8323,-3.8326,0,0,0,0,0,0,0,0,0,0,0,0,0,-3.8298,-3.8273,-3.8353,-3.8326,-3.8324,-3.837,-3.837,-3.837,-3.8312,-3.8309,-3.8306,-3.8304,-3.832,-3.8323,-3.8326,-3.8398,0,0,-3.8336,-3.8337,0,0,0,0,0,0,0,0,-3.8297,-3.8302,-3.833,-3.8328,-3.8326,-3.8335,-3.8346,-3.838,-3.8312,-3.8316,-3.8306,-3.8302,-3.8328,-3.8331,-3.8339,-3.8399,-3.84,-3.8336,-3.8338,-3.8339,-3.834,0,0,0,0,0,0,0,-3.8295,-3.8301,-3.836,-3.8331,-3.8328,-3.8313,-3.8314,-3.8352,-3.8337,-3.8316,-3.8311,-3.8314,-3.8327,-3.8337,-3.8339,-3.84,-3.8336,-3.8339,-3.8341,-3.8342,-3.8518,-3.8521,0,0,0,0,0,0,-3.8297,-3.8299,-3.8359,-3.836,-3.8305,-3.8317,-3.8318,-3.8335,-3.8336,-3.8334,-3.8316,-3.8311,-3.8333,-3.8336,-3.834,-3.8423,-3.8339,-3.8342,-3.8344,-3.8516,-3.8519,-3.8522,0,0,0,0,0,0,-3.8295,-3.8303,-3.8359,-3.8329,-3.8335,-3.8321,-3.8341,-3.8337,-3.8347,-3.8337,-3.8334,-3.833,-3.8331,-3.8335,-3.8384,-3.8423,-3.8343,-3.8346,-3.8512,-3.8517,-3.852,-3.8592,0,0,0,0,0,0,-3.8293,-3.8303,-3.833,-3.833,-3.8336,-3.8403,-3.8343,-3.8339,-3.8352,-3.8346,-3.8348,-3.8346,-3.8329,-3.838,-3.8387,-3.8426,-3.8349,-3.8509,-3.8514,-3.8519,-3.8586,-3.8598,-3.8609,0,0,0,0,0,-3.829,-3.835,-3.8332,-3.834,-3.8371,-3.8406,-3.8409,-3.8388,-3.8356,-3.8383,-3.8377,-3.8346,-3.8418,-3.8385,-3.8393,-3.8433,-3.8506,-3.8513,-3.8519,-3.8581,-3.8596,-3.8608,0,0,0,0,0,0,-3.8355,-3.8349,-3.8329,-3.8391,-3.8399,-3.8396,-3.843,-3.8405,-3.8423,-3.8416,-3.8389,-3.839,-3.8443,-3.8443,-3.8407,-3.8503,-3.8456,-3.8464,-3.8501,-3.8515,-3.8526,-3.8525,-3.8351,0,0,0,0,0,-3.8377,-3.8406,-3.8399,-3.8454,-3.8459,-3.8444,-3.8458,-3.8441,-3.8449,-3.8452,-3.8449,-3.8458,-3.8482,-3.8498,-3.852,-3.8586,-3.8585,-3.8617,-3.8629,-3.8638,-3.8645,-3.8679,-3.8693,-3.8543,-3.8543,-3.8543,0,0,-3.8422,-3.8422,-3.8442,-3.8467,-3.8471,-3.8502,-3.8447,-3.8482,-3.8504,-3.8457,-3.8503,-3.8501,-3.8508,-3.8566,-3.8591,-3.8567,-3.8686,-3.8646,-3.8653,-3.8656,-3.8687,-3.8701,-3.8714,-3.8547,-3.8546,-3.8546,0,0,-3.8518,-3.8522,-3.8567,-3.8573,-3.858,-3.857,-3.8581,-3.8581,-3.8578,-3.8623,-3.8588,-3.8614,-3.8657,-3.8663,-3.8672,-3.877,-3.8742,-3.8778,-3.8836,-3.887,-3.8881,-3.8892,-3.8926,-3.8939,-3.8785,-3.8785,-3.8786,0,-3.8573,-3.8617,-3.8594,-3.863,-3.8642,-3.8601,-3.8646,-3.8653,-3.8667,-3.8676,-3.8649,-3.8701,-3.8703,-3.8761,-3.8785,-3.8794,-3.8805,-3.8777,-3.8882,-3.8892,-3.8901,-3.8934,-3.8947,-3.879,-3.8789,-3.8789,-3.8788,0,-3.8683,-3.8715,-3.875,-3.8765,-3.8781,-3.8822,-3.8804,-3.8822,-3.8804,-3.8796,-3.8842,-3.8843,-3.8864,-3.8876,-3.8859,-3.8931,-3.8916,-3.8886,-3.8839,-3.892,-3.895,-3.8962,-3.8796,-3.8794,-3.8793,-3.8792,0,0,-3.8822,-3.8822,-3.8836,-3.8841,-3.8846,-3.887,-3.8909,-3.8929,-3.8945,-3.8956,-3.8987,-3.9024,-3.8996,-3.9006,-3.8989,-3.9018,-3.9095,-3.8984,-3.8984,-3.9004,-3.9174,-3.9196,-3.9211,-3.9076,-3.9079,-3.908,-3.9173,0,-3.8916,-3.8982,-3.8962,-3.9028,-3.9056,-3.9018,-3.9051,-3.9058,-3.9051,-3.9074,-3.9066,-3.9092,-3.9053,-3.9059,-3.9086,-3.908,-3.9128,-3.9073,-3.9105,-3.9106,-3.9104,-3.9227,-3.925,-3.9338,-3.9184,-3.9186,-3.9188,0,-3.9035,-3.9051,-3.912,-3.9119,-3.913,-3.9161,-3.9177,-3.92,-3.9206,-3.9199,-3.921,-3.9186,-3.9223,-3.9176,-3.9226,-3.9189,-3.9201,-3.9199,-3.9202,-3.9204,-3.9152,-3.9231,-3.9365,-3.9378,-3.9206,-3.9205,-3.9203,0,-3.9128,-3.9166,-3.9213,-3.9219,-3.9219,-3.9242,-3.9243,-3.9246,-3.926,-3.9274,-3.9282,-3.9301,-3.9311,-3.9326,-3.9307,-3.9275,-3.936,-3.9312,-3.9355,-3.9355,-3.9374,-3.9374,-3.9512,-3.9383,-3.9383,-3.9383,-3.9382,0,-3.9235,-3.9279,-3.9254,-3.9283,-3.933,-3.9306,-3.9354,-3.9351,-3.9354,-3.9381,-3.9348,-3.9374,-3.9348,-3.9372,-3.9357,-3.9401,-3.9406,-3.9401,-3.9396,-3.9404,-3.9404,-3.9411,-3.9404,-3.9386,-3.9385,-3.9385,-3.9384,0,-3.9347,-3.9333,-3.938,-3.9377,-3.9377,-3.9412,-3.9409,-3.9434,-3.9425,-3.9459,-3.9466,-3.9452,-3.9477,-3.946,-3.9486,-3.9476,-3.9533,-3.9521,-3.9531,-3.9528,-3.9572,-3.9568,-3.9719,-3.9737,-3.9597,-3.9598,-3.96,0,-3.9417,-3.9449,-3.9449,-3.9465,-3.9468,-3.9494,-3.9507,-3.9484,-3.9499,-3.9508,-3.9532,-3.9555,-3.9572,-3.9614,-3.9606,-3.9625,-3.9613,-3.9664,-3.9615,-3.9621,-3.9613,-3.9611,-3.9614,-3.9674,-3.9676,-3.9677,-3.9678,0,-3.9541,-3.9531,-3.9552,-3.957,-3.9586,-3.9599,-3.9609,-3.9624,-3.9601,-3.9619,-3.9645,-3.9658,-3.9684,-3.9707,-3.9723,-3.9723,-3.9697,-3.9694,-3.9704,-3.9712,-3.9716,-3.9714,-3.9558,-3.969,-3.9689,-3.9688,-3.9687,-3.9687,-3.9633,-3.966,-3.9664,-3.9687,-3.9692,-3.9702,-3.9726,-3.972,-3.9741,-3.976,-3.9745,-3.9776,-3.978,-3.9799,-3.9803,-3.9826,-3.9805,-3.9821,-3.9825,-3.9829,-3.9835,-3.9713,-3.9829,-3.9828,-3.9828,-3.9827,-3.9827,0,-3.9755,-3.9755,-3.9777,-3.9792,-3.981,-3.9784,-3.9794,-3.9811,-3.9838,-3.9844,-3.9861,-3.989,-3.9912,-3.9905,-3.9924,-3.9944,-3.9933,-3.995,-3.9948,-3.9949,-3.9853,-3.9841,-3.9959,-3.9959,-3.9959,-3.9959,-3.9959,-3.9959,-3.982,-3.9864,-3.9855,-3.9901,-3.9901,-3.993,-3.9938,-3.9947,-3.9952,-3.9986,-4.0004,-3.9999,-4.0,-4.0019,-4.0037,-4.0035,-4.0043,-4.0065,-4.0058,-3.9968,-3.9955,-3.9943,-3.9932,-4.0067,-4.0067,-4.0151,-4.0152,-4.0153]}]]